{"data":{"norad_id":62810,"intl_designator":"2025-018E","name":"STARLINK-32851","alt_names":[],"object_type":"PAYLOAD","status":"ACTIVE","operator":null,"country":"US","launch_date":"2025-01-24","launch_site_code":"AFWTR","launch_vehicle":null,"mission":null,"orbit_class":"UNKNOWN","rcs_meters":null,"size_class":null,"mass_kg":null,"dimensions":null,"purposes":["comms"],"wikipedia_slug":null,"has_3d_model":false,"image_url":null,"decayed_at":null,"tle_current":{"epoch":"2026-05-25T04:50:45.432672Z","epoch_age_seconds":54265,"freshness":"FRESH","line1":"1 62810U 25018E   26145.20191473  .00013684  00000+0  47314-3 0  9991","line2":"2 62810  53.1602 314.1426 0001673  94.6030 265.5162 15.30210585 74880","mean_motion":15.30210585,"eccentricity":0.0001673,"inclination_deg":53.1602,"raan_deg":314.1426,"arg_perigee_deg":94.603,"mean_anomaly_deg":265.5162,"bstar":0.00047314,"rev_number":7488,"period_min":94.104694746965,"perigee_km":474.03690418572,"apogee_km":476.33002521321,"semimajor_km":6853.3204646995,"source":"CELESTRAK","updated_at":"2026-05-25T13:38:19.772503Z"}}}